Terug naar catalogus

THOR ABLESTAR DEB

ActiefLEO
NORAD 403·DEBRIS·🇺🇸 United States

Gelanceerd Jun 29, 1961 vanaf Cape Canaveral Space Force Station

Loading…

Volgende Passages (komende 24 uur)

TLE

VersSource: Space-Track

Epoch: Sep 5, 2026, 15:28 UTC

1 00403U 61015EC  26248.64448674 -.00000011  00000-0  60087-4 0  9993
2 00403  66.8396  93.2780 0016345 135.5778 286.7951 13.81246716282268

Volg THOR ABLESTAR DEB in realtime met AllMySat

Download on the App Store